Home   Weather   Mar del Plata   Past weeks
Flag for Argentina

Past Weather in Mar del Plata, Buenos Aires, Argentina — Yesterday and Last 2 Weeks

Now
58 °F

Fog.


Feels Like: 55 °F
Forecast: 60 / 56 °F
Wind: 13 mph from East

Location: Mar Del Plata Aerodrome

Current Time: Jun 17, 2019 at 12:29:11 am

Latest Report: Jun 16, 2019 at 11:00 pm


Visibility: 5 mi

Pressure: 30.34 "Hg

Humidity: 88%

Dew Point: 54 °F

Location of Mar del PlataLocation

Past Weather in Mar del Plata — Graph

°F

Mar del Plata Temperature Yesterday

Maximum temperature yesterday: 58 °F (at 10:00 pm)
Minimum temperature yesterday: 50 °F (at 3:00 am)
Average temperature yesterday: 55 °F

High & Low Weather Summary for the Past Weeks

 TemperatureHumidityPressure
High67 °F (Jun 9, 3:00 pm)100% (Jun 4, 1:00 am)30.39 "Hg (Jun 4, 1:00 am)
Low33 °F (Jun 11, 7:00 am)36% (Jun 9, 2:00 pm)29.76 "Hg (Jun 12, 3:00 pm)
Average53 °F80%30.04 "Hg
* Reported Jun 1 10:00 pm — Jun 16 10:00 pm, Mar del Plata. Weather by CustomWeather, © 2019

Note: Actual official high and low records may vary slightly from our data, if they occured in-between our weather recording intervals... More about our weather records

Advertising

Mar del Plata Weather History for the Previous 24 Hours

Scroll right to see more
 ConditionsComfort  
Time TempWeatherWind HumidityBarometerVisibility
10:00 pm
Sun, Jun 16
58 °FFog.10 mph88%30.35 "Hg5 mi
9:00 pm58 °FFog.14 mph87%30.34 "Hg5 mi
8:00 pm58 °FFog.13 mph87%30.34 "Hg4 mi
7:00 pm57 °FFog.16 mph89%30.31 "Hg4 mi
6:00 pm57 °FFog.15 mph88%30.33 "Hg4 mi
5:00 pm57 °FFog.16 mph88%30.33 "Hg4 mi
4:00 pm57 °FFog.13 mph87%30.33 "Hg4 mi
3:00 pm57 °FFog.13 mph88%30.34 "Hg4 mi
2:00 pm57 °FFog.15 mph85%30.35 "Hg4 mi
1:00 pm57 °FFog.15 mph85%30.38 "Hg4 mi
12:00 pm57 °FFog.15 mph83%30.38 "Hg4 mi
11:00 am57 °FFog.16 mph84%30.39 "Hg4 mi
10:00 am56 °FFog.15 mph77%30.37 "Hg4 mi
9:00 am55 °FFog.15 mph88%30.12 "Hg4 mi
8:00 am54 °FLow clouds.12 mph94%30.36 "Hg5 mi
7:00 am53 °FLow clouds.12 mph96%30.35 "Hg6 mi
6:00 am52 °FLow clouds.14 mph97%30.35 "Hg6 mi
5:00 am51 °FDrizzle. Low clouds.10 mph95%30.35 "Hg4 mi
3:00 am50 °FDrizzle. Low clouds.10 mph96%30.34 "Hg4 mi
1:00 am50 °FOvercast.13 mph94%30.34 "Hg6 mi
12:00 am51 °FOvercast.10 mph95%30.35 "Hg6 mi
Weather by CustomWeather, © 2019

See weather overview